• In Uzbekistan
  • List of Countries
  • For 7 days
  • Water Temperature
  • Satellite Maps
  • Weather Map
  • Weather Widgets
  • user-avatar
    Login

    Hourly Weather Korçe

    Today, 21 July, Friday

    Time Temperature Precipitation Wind Pressure Humidity
    00:00 +18°C° 0 mm 1 mps 667 mmHg 69%
    01:00 +18°C° 0 mm 1 mps 667 mmHg 69%
    02:00 +16°C° 0 mm 1 mps 667 mmHg 70%
    03:00 +16°C° 0 mm 1 mps 667 mmHg 71%
    04:00 +16°C° 0 mm 1 mps 667 mmHg 72%
    05:00 +19°C° 0 mm 1 mps 667 mmHg 67%
    06:00 +21°C° 0 mm 1 mps 668 mmHg 63%
    07:00 +22°C° 0 mm 1 mps 668 mmHg 58%
    08:00 +24°C° 0 mm 1 mps 669 mmHg 53%
    09:00 +26°C° 0 mm 1 mps 669 mmHg 47%
    10:00 +27°C° 0 mm 1 mps 670 mmHg 42%
    11:00 +28°C° 0 mm 2 mps 670 mmHg 40%
    12:00 +28°C° 0 mm 2 mps 670 mmHg 38%
    13:00 +29°C° 0 mm 2 mps 670 mmHg 37%
    14:00 +29°C° 0 mm 2 mps 670 mmHg 38%
    15:00 +28°C° 0 mm 2 mps 669 mmHg 39%
    16:00 +28°C° 0 mm 2 mps 669 mmHg 41%
    17:00 +26°C° 0 mm 2 mps 669 mmHg 47%
    18:00 +24°C° 0 mm 2 mps 668 mmHg 53%
    19:00 +22°C° 0 mm 1 mps 668 mmHg 59%
    20:00 +21°C° 0 mm 1 mps 668 mmHg 61%
    21:00 +21°C° 0 mm 1 mps 668 mmHg 63%
    22:00 +20°C° 0 mm 1 mps 668 mmHg 65%
    23:00 +20°C° 0 mm 1 mps 668 mmHg 66%

    Tomorrow, 22 July, Saturday

    Time Temperature Precipitation Wind Pressure Humidity
    00:00 +19°C° 0 mm 1 mps 668 mmHg 66%
    01:00 +19°C° 0 mm 1 mps 668 mmHg 66%
    02:00 +19°C° 0 mm 1 mps 668 mmHg 66%
    03:00 +19°C° 0 mm 1 mps 668 mmHg 67%
    04:00 +18°C° 0 mm 1 mps 668 mmHg 67%
    05:00 +20°C° 0 mm 1 mps 669 mmHg 62%
    06:00 +20°C° 0 mm 0 mps 669 mmHg 57%
    07:00 +22°C° 0 mm 0 mps 670 mmHg 52%
    08:00 +26°C° 0 mm 1 mps 671 mmHg 47%
    09:00 +28°C° 0 mm 1 mps 671 mmHg 42%
    10:00 +29°C° 0 mm 2 mps 671 mmHg 36%
    11:00 +30°C° 0 mm 2 mps 671 mmHg 35%
    12:00 +31°C° 0 mm 2 mps 671 mmHg 33%
    13:00 +31°C° 0 mm 3 mps 671 mmHg 32%
    14:00 +31°C° 0 mm 3 mps 671 mmHg 33%
    15:00 +30°C° 0 mm 3 mps 671 mmHg 35%
    16:00 +30°C° 0 mm 3 mps 671 mmHg 36%
    17:00 +28°C° 0 mm 3 mps 670 mmHg 41%
    18:00 +26°C° 0 mm 2 mps 669 mmHg 47%
    19:00 +23°C° 0 mm 1 mps 669 mmHg 52%
    20:00 +22°C° 0 mm 1 mps 669 mmHg 53%
    21:00 +22°C° 0 mm 1 mps 669 mmHg 53%
    22:00 +21°C° 0 mm 1 mps 669 mmHg 54%
    23:00 +20°C° 0 mm 1 mps 669 mmHg 53%

    Day after tomorrow, 23 July, Sunday

    Time Temperature Precipitation Wind Pressure Humidity
    00:00 +20°C° 0 mm 1 mps 669 mmHg 51%
    01:00 +20°C° 0 mm 1 mps 668 mmHg 50%
    02:00 +20°C° 0 mm 1 mps 668 mmHg 49%
    03:00 +20°C° 0 mm 1 mps 668 mmHg 48%
    04:00 +19°C° 0 mm 1 mps 668 mmHg 46%
    05:00 +21°C° 0 mm 1 mps 668 mmHg 45%
    06:00 +23°C° 0 mm 1 mps 669 mmHg 43%
    07:00 +25°C° 0 mm 1 mps 669 mmHg 42%
    08:00 +27°C° 0 mm 1 mps 670 mmHg 39%
    09:00 +29°C° 0 mm 2 mps 670 mmHg 35%
    10:00 +30°C° 0 mm 2 mps 670 mmHg 32%
    11:00 +31°C° 0 mm 3 mps 670 mmHg 31%
    12:00 +31°C° 0 mm 3 mps 670 mmHg 30%
    13:00 +33°C° 0 mm 3 mps 670 mmHg 29%
    14:00 +31°C° 0 mm 3 mps 669 mmHg 31%
    15:00 +31°C° 0 mm 3 mps 669 mmHg 32%
    16:00 +30°C° 0 mm 3 mps 669 mmHg 34%
    17:00 +28°C° 0 mm 3 mps 668 mmHg 40%
    18:00 +26°C° 0 mm 2 mps 668 mmHg 45%
    19:00 +23°C° 0 mm 2 mps 667 mmHg 51%
    20:00 +21°C° 0 mm 2 mps 667 mmHg 53%
    21:00 +21°C° 0 mm 1 mps 667 mmHg 54%
    22:00 +20°C° 0 mm 1 mps 667 mmHg 56%
    23:00 +20°C° 0 mm 1 mps 667 mmHg 56%

    24 July, Monday

    Time Temperature Precipitation Wind Pressure Humidity
    00:00 +20°C° 0 mm 1 mps 667 mmHg 56%
    01:00 +19°C° 0 mm 1 mps 666 mmHg 56%
    02:00 +19°C° 0 mm 1 mps 666 mmHg 56%
    03:00 +19°C° 0 mm 1 mps 666 mmHg 55%
    04:00 +18°C° 0 mm 1 mps 665 mmHg 54%
    05:00 +20°C° 0 mm 1 mps 666 mmHg 51%
    06:00 +22°C° 0 mm 1 mps 666 mmHg 47%
    07:00 +22°C° 0 mm 0 mps 667 mmHg 43%
    08:00 +26°C° 0 mm 1 mps 667 mmHg 38%
    09:00 +28°C° 0 mm 1 mps 668 mmHg 33%
    10:00 +30°C° 0 mm 1 mps 668 mmHg 28%
    11:00 +31°C° 0 mm 2 mps 668 mmHg 26%
    12:00 +31°C° 0 mm 2 mps 667 mmHg 24%
    13:00 +32°C° 0 mm 2 mps 667 mmHg 22%
    14:00 +32°C° 0 mm 2 mps 667 mmHg 24%
    15:00 +31°C° 0 mm 2 mps 666 mmHg 25%
    16:00 +31°C° 0 mm 2 mps 666 mmHg 26%
    17:00 +29°C° 0 mm 2 mps 665 mmHg 32%
    18:00 +26°C° 0 mm 2 mps 665 mmHg 37%
    19:00 +24°C° 0 mm 1 mps 664 mmHg 42%
    20:00 +23°C° 0 mm 1 mps 664 mmHg 45%
    21:00 +21°C° 0 mm 2 mps 664 mmHg 47%
    22:00 +20°C° 0 mm 2 mps 663 mmHg 49%
    23:00 +19°C° 0 mm 2 mps 663 mmHg 51%

    25 July, Tuesday

    Time Temperature Precipitation Wind Pressure Humidity
    00:00 +19°C° 0 mm 2 mps 663 mmHg 53%
    01:00 +18°C° 0 mm 3 mps 662 mmHg 55%
    02:00 +18°C° 0 mm 2 mps 662 mmHg 56%
    03:00 +17°C° 0 mm 2 mps 662 mmHg 57%
    04:00 +17°C° 0 mm 2 mps 662 mmHg 57%
    05:00 +18°C° 0 mm 2 mps 662 mmHg 56%
    06:00 +20°C° 0 mm 2 mps 662 mmHg 54%
    07:00 +21°C° 0 mm 2 mps 663 mmHg 53%
    08:00 +24°C° 0 mm 2 mps 663 mmHg 49%
    09:00 +25°C° 0 mm 2 mps 663 mmHg 44%
    10:00 +27°C° 0 mm 3 mps 663 mmHg 40%
    11:00 +27°C° 0 mm 3 mps 663 mmHg 39%
    12:00 +28°C° 0 mm 3 mps 663 mmHg 37%
    13:00 +29°C° 0 mm 4 mps 663 mmHg 35%
    14:00 +28°C° 0 mm 4 mps 663 mmHg 37%
    15:00 +27°C° 0 mm 4 mps 663 mmHg 39%
    16:00 +27°C° 0 mm 4 mps 663 mmHg 41%
    17:00 +25°C° 0 mm 3 mps 663 mmHg 49%
    18:00 +23°C° 0 mm 2 mps 662 mmHg 57%
    19:00 +20°C° 0 mm 2 mps 662 mmHg 65%
    20:00 +20°C° 0 mm 1 mps 662 mmHg 69%
    21:00 +19°C° 0 mm 1 mps 662 mmHg 73%
    22:00 +18°C° 0 mm 1 mps 662 mmHg 77%
    23:00 +16°C° 0 mm 1 mps 662 mmHg 79%

    26 July, Wednesday

    Time Temperature Precipitation Wind Pressure Humidity
    00:00 +16°C° 0 mm 1 mps 661 mmHg 80%
    01:00 +15°C° 0 mm 1 mps 661 mmHg 81%
    02:00 +15°C° 0 mm 1 mps 661 mmHg 81%
    03:00 +15°C° 0 mm 1 mps 661 mmHg 82%
    04:00 +14°C° 0 mm 1 mps 661 mmHg 82%
    05:00 +16°C° 0 mm 1 mps 662 mmHg 75%
    06:00 +19°C° 0 mm 1 mps 662 mmHg 67%
    07:00 +21°C° 0 mm 1 mps 663 mmHg 60%
    08:00 +23°C° 0 mm 1 mps 663 mmHg 54%
    09:00 +24°C° 0 mm 2 mps 664 mmHg 48%
    10:00 +26°C° 0 mm 2 mps 664 mmHg 42%
    11:00 +26°C° 0 mm 2 mps 664 mmHg 40%
    12:00 +27°C° 0 mm 3 mps 664 mmHg 39%
    13:00 +27°C° 0 mm 3 mps 664 mmHg 38%
    14:00 +27°C° 0 mm 3 mps 664 mmHg 40%
    15:00 +26°C° 0 mm 3 mps 664 mmHg 43%
    16:00 +26°C° 0 mm 3 mps 664 mmHg 45%
    17:00 +24°C° 0 mm 3 mps 663 mmHg 53%
    18:00 +21°C° 0 mm 2 mps 663 mmHg 61%
    19:00 +19°C° 0 mm 2 mps 663 mmHg 70%
    20:00 +18°C° 0.1 mm 2 mps 663 mmHg 74%
    21:00 +18°C° 0.1 mm 1 mps 663 mmHg 79%
    22:00 +16°C° 0.1 mm 1 mps 663 mmHg 83%
    23:00 +16°C° 0 mm 1 mps 663 mmHg 84%
    Show more